Time,TemperatureF,DewpointF,PressureIn,WindDirection,WindDirectionDegrees,WindSpeedMPH,WindSpeedGustMPH,Humidity,HourlyPrecipIn,Conditions,Clouds,dailyrainin,SoftwareType,DateUTC
2013-07-29 00:00:00,66.0,63.0,30.03,SSW,192,0.0,5.0,90,0.00,,,0.00,Wunderground v.1.15,2013-07-29 05:00:00,
2013-07-29 00:05:00,66.0,63.0,30.02,SSW,192,0.0,5.0,90,0.00,,,0.00,Wunderground v.1.15,2013-07-29 05:05:00,
2013-07-29 00:10:00,65.8,63.1,30.02,SSW,192,0.0,5.0,91,0.00,,,0.00,Wunderground v.1.15,2013-07-29 05:10:00,
2013-07-29 00:15:00,65.8,63.1,30.02,SSW,192,0.0,5.0,91,0.00,,,0.00,Wunderground v.1.15,2013-07-29 05:15:00,
2013-07-29 00:20:00,65.8,63.1,30.02,SSW,192,0.0,5.0,91,0.00,,,0.00,Wunderground v.1.15,2013-07-29 05:20:00,
2013-07-29 00:25:00,65.8,63.1,30.02,SSW,192,0.0,5.0,91,0.00,,,0.00,Wunderground v.1.15,2013-07-29 05:25:00,
2013-07-29 00:30:00,65.8,63.1,30.02,SSW,192,0.0,5.0,91,0.00,,,0.00,Wunderground v.1.15,2013-07-29 05:30:00,
2013-07-29 00:35:00,65.8,63.1,30.02,SSW,192,0.0,5.0,91,0.00,,,0.00,Wunderground v.1.15,2013-07-29 05:35:00,
2013-07-29 00:40:00,65.8,63.4,30.02,SSW,192,0.0,5.0,92,0.00,,,0.00,Wunderground v.1.15,2013-07-29 05:40:00,
2013-07-29 00:45:00,65.6,63.2,30.02,SSW,192,0.0,5.0,92,0.00,,,0.00,Wunderground v.1.15,2013-07-29 05:45:00,
2013-07-29 00:50:00,65.6,63.2,30.02,SSW,192,0.0,5.0,92,0.00,,,0.00,Wunderground v.1.15,2013-07-29 05:50:00,
2013-07-29 00:55:00,65.6,63.2,30.02,SSW,192,0.0,5.0,92,0.00,,,0.00,Wunderground v.1.15,2013-07-29 05:55:00,
2013-07-29 01:00:00,65.6,63.2,30.02,SSW,192,0.0,5.0,92,0.00,,,0.00,Wunderground v.1.15,2013-07-29 06:00:00,
2013-07-29 01:05:00,65.6,63.2,30.02,SSW,192,0.0,5.0,92,0.00,,,0.00,Wunderground v.1.15,2013-07-29 06:05:00,
2013-07-29 01:10:00,65.5,63.1,30.02,SSW,192,0.0,5.0,92,0.00,,,0.00,Wunderground v.1.15,2013-07-29 06:10:00,
2013-07-29 01:15:00,65.6,63.2,30.02,SSW,192,0.0,5.0,92,0.00,,,0.00,Wunderground v.1.15,2013-07-29 06:15:00,
2013-07-29 01:20:00,65.6,63.2,30.02,SSW,192,0.0,5.0,92,0.00,,,0.00,Wunderground v.1.15,2013-07-29 06:20:00,
2013-07-29 01:25:00,65.6,63.2,30.02,SSW,192,0.0,5.0,92,0.00,,,0.00,Wunderground v.1.15,2013-07-29 06:25:00,
2013-07-29 01:30:00,65.8,63.4,30.02,SSW,192,0.0,5.0,92,0.00,,,0.00,Wunderground v.1.15,2013-07-29 06:30:00,
2013-07-29 01:35:00,65.8,63.4,30.01,SSW,192,0.0,5.0,92,0.00,,,0.00,Wunderground v.1.15,2013-07-29 06:35:00,
2013-07-29 01:40:00,65.8,63.4,30.01,SSW,192,0.0,5.0,92,0.00,,,0.00,Wunderground v.1.15,2013-07-29 06:40:00,
2013-07-29 01:45:00,65.8,63.4,30.01,SSW,192,0.0,5.0,92,0.00,,,0.00,Wunderground v.1.15,2013-07-29 06:45:00,
2013-07-29 01:50:00,66.0,63.3,30.02,SSW,192,0.0,5.0,91,0.00,,,0.00,Wunderground v.1.15,2013-07-29 06:50:00,
2013-07-29 01:55:00,66.0,63.3,30.02,SSW,192,0.0,5.0,91,0.00,,,0.00,Wunderground v.1.15,2013-07-29 06:55:00,
2013-07-29 02:00:00,66.0,63.3,30.02,SSW,192,0.0,5.0,91,0.00,,,0.00,Wunderground v.1.15,2013-07-29 07:00:00,
2013-07-29 02:05:00,66.0,63.3,30.03,SSW,192,0.0,5.0,91,0.00,,,0.00,Wunderground v.1.15,2013-07-29 07:05:00,
2013-07-29 02:10:00,66.0,63.3,30.03,SSW,192,0.0,5.0,91,0.00,,,0.00,Wunderground v.1.15,2013-07-29 07:10:00,
2013-07-29 02:15:00,66.0,63.3,30.03,SSW,192,0.0,5.0,91,0.00,,,0.00,Wunderground v.1.15,2013-07-29 07:15:00,
2013-07-29 02:20:00,65.8,63.1,30.03,SSW,192,0.0,5.0,91,0.00,,,0.00,Wunderground v.1.15,2013-07-29 07:20:00,
2013-07-29 02:25:00,65.8,63.1,30.03,SSW,192,0.0,5.0,91,0.00,,,0.00,Wunderground v.1.15,2013-07-29 07:25:00,
2013-07-29 02:30:00,65.8,63.1,30.03,SSW,192,0.0,5.0,91,0.00,,,0.00,Wunderground v.1.15,2013-07-29 07:30:00,
2013-07-29 02:35:00,65.8,63.1,30.03,SSW,192,0.0,5.0,91,0.00,,,0.00,Wunderground v.1.15,2013-07-29 07:35:00,
2013-07-29 02:40:00,65.6,62.9,30.03,SSW,192,0.0,5.0,91,0.00,,,0.00,Wunderground v.1.15,2013-07-29 07:40:00,
2013-07-29 02:45:00,65.6,62.9,30.03,SSW,192,0.0,5.0,91,0.00,,,0.00,Wunderground v.1.15,2013-07-29 07:45:00,
2013-07-29 02:50:00,65.6,62.9,30.03,SSW,192,0.0,5.0,91,0.00,,,0.00,Wunderground v.1.15,2013-07-29 07:50:00,
2013-07-29 02:55:00,65.6,62.9,30.03,SSW,192,0.0,5.0,91,0.00,,,0.00,Wunderground v.1.15,2013-07-29 07:55:00,
2013-07-29 03:00:00,65.5,63.1,30.03,SSW,192,0.0,5.0,92,0.00,,,0.00,Wunderground v.1.15,2013-07-29 08:00:00,
2013-07-29 03:05:00,65.5,63.1,30.01,SSW,192,0.0,5.0,92,0.00,,,0.00,Wunderground v.1.15,2013-07-29 08:05:00,
2013-07-29 03:10:00,65.3,62.9,30.01,South,187,0.0,5.0,92,0.00,,,0.00,Wunderground v.1.15,2013-07-29 08:10:00,
2013-07-29 03:15:00,65.3,62.9,30.01,South,187,0.0,5.0,92,0.00,,,0.00,Wunderground v.1.15,2013-07-29 08:15:00,
2013-07-29 03:20:00,65.2,62.5,30.02,South,187,0.0,5.0,91,0.00,,,0.00,Wunderground v.1.15,2013-07-29 08:20:00,
2013-07-29 03:25:00,65.3,62.6,30.02,South,187,0.0,5.0,91,0.00,,,0.00,Wunderground v.1.15,2013-07-29 08:25:00,
2013-07-29 03:30:00,65.3,62.6,30.02,South,187,0.0,5.0,91,0.00,,,0.00,Wunderground v.1.15,2013-07-29 08:30:00,
2013-07-29 03:35:00,65.3,62.6,30.03,South,187,0.0,5.0,91,0.00,,,0.00,Wunderground v.1.15,2013-07-29 08:35:00,
2013-07-29 03:40:00,65.3,62.6,30.03,South,187,0.0,5.0,91,0.00,,,0.00,Wunderground v.1.15,2013-07-29 08:40:00,
2013-07-29 03:45:00,65.3,62.6,30.03,South,187,0.0,5.0,91,0.00,,,0.00,Wunderground v.1.15,2013-07-29 08:45:00,
2013-07-29 03:50:00,65.3,62.6,30.03,South,187,0.0,5.0,91,0.00,,,0.00,Wunderground v.1.15,2013-07-29 08:50:00,
2013-07-29 03:55:00,65.3,62.6,30.03,South,187,0.0,5.0,91,0.00,,,0.00,Wunderground v.1.15,2013-07-29 08:55:00,
2013-07-29 04:00:00,65.5,62.8,30.03,South,187,0.0,5.0,91,0.00,,,0.00,Wunderground v.1.15,2013-07-29 09:00:00,
2013-07-29 04:15:00,65.6,62.9,30.03,South,187,0.0,5.0,91,0.00,,,0.00,Wunderground v.1.15,2013-07-29 09:15:00,
2013-07-29 04:20:00,65.6,62.9,30.04,South,187,0.0,5.0,91,0.00,,,0.00,Wunderground v.1.15,2013-07-29 09:20:00,
2013-07-29 04:25:00,65.6,62.9,30.04,South,187,0.0,5.0,91,0.00,,,0.00,Wunderground v.1.15,2013-07-29 09:25:00,
2013-07-29 04:30:00,65.6,62.9,30.04,South,187,0.0,5.0,91,0.00,,,0.00,Wunderground v.1.15,2013-07-29 09:30:00,
2013-07-29 04:35:00,65.6,63.2,30.05,South,187,0.0,5.0,92,0.00,,,0.00,Wunderground v.1.15,2013-07-29 09:35:00,
2013-07-29 04:40:00,65.6,63.2,30.05,South,187,0.0,5.0,92,0.00,,,0.00,Wunderground v.1.15,2013-07-29 09:40:00,
2013-07-29 04:45:00,65.8,63.4,30.05,South,187,0.0,5.0,92,0.00,,,0.00,Wunderground v.1.15,2013-07-29 09:45:00,
2013-07-29 04:55:00,65.8,63.4,30.05,South,187,0.0,5.0,92,0.00,,,0.00,Wunderground v.1.15,2013-07-29 09:55:00,
2013-07-29 05:05:00,65.6,63.2,30.04,South,186,0.0,5.0,92,0.00,,,0.00,Wunderground v.1.15,2013-07-29 10:05:00,
2013-07-29 05:10:00,65.5,62.8,30.04,South,186,0.0,5.0,91,0.00,,,0.00,Wunderground v.1.15,2013-07-29 10:10:00,
2013-07-29 05:15:00,65.5,62.8,30.04,South,186,0.0,5.0,91,0.00,,,0.00,Wunderground v.1.15,2013-07-29 10:15:00,
2013-07-29 05:20:00,65.5,62.8,30.05,South,186,0.0,5.0,91,0.00,,,0.00,Wunderground v.1.15,2013-07-29 10:20:00,
2013-07-29 05:30:00,65.6,62.6,30.05,South,186,0.0,5.0,90,0.00,,,0.00,Wunderground v.1.15,2013-07-29 10:30:00,
2013-07-29 05:50:00,65.6,62.6,30.05,SSE,163,1.0,5.0,90,0.00,,,0.00,Wunderground v.1.15,2013-07-29 10:50:00,
2013-07-29 05:55:00,65.8,62.8,30.05,SE,146,1.0,5.0,90,0.00,,,0.00,Wunderground v.1.15,2013-07-29 10:55:00,
2013-07-29 05:59:00,65.8,63.4,30.05,South,187,0.0,5.0,92,0.00,,,0.00,Wunderground v.1.15,2013-07-29 10:59:00,
2013-07-29 06:10:00,66.1,63.1,30.05,SE,146,1.0,5.0,90,0.00,,,0.00,Wunderground v.1.15,2013-07-29 11:10:00,
2013-07-29 06:15:00,66.3,63.3,30.05,SE,146,1.0,5.0,90,0.00,,,0.00,Wunderground v.1.15,2013-07-29 11:15:00,
2013-07-29 06:24:00,65.5,62.5,30.05,South,186,0.0,5.0,90,0.00,,,0.00,Wunderground v.1.15,2013-07-29 11:24:00,
2013-07-29 06:34:00,65.6,62.6,30.05,South,186,0.0,5.0,90,0.00,,,0.00,Wunderground v.1.15,2013-07-29 11:34:00,
2013-07-29 06:44:00,65.6,62.6,30.05,SSE,158,0.0,5.0,90,0.00,,,0.00,Wunderground v.1.15,2013-07-29 11:44:00,
2013-07-29 06:59:00,65.8,62.8,30.05,SE,146,1.0,5.0,90,0.00,,,0.00,Wunderground v.1.15,2013-07-29 11:59:00,
2013-07-29 07:04:00,66.0,63.0,30.05,SE,146,0.0,5.0,90,0.00,,,0.00,Wunderground v.1.15,2013-07-29 12:04:00,
2013-07-29 07:30:00,68.3,64.9,30.07,SSE,151,0.0,5.0,89,0.00,,,0.00,Wunderground v.1.15,2013-07-29 12:30:00,
2013-07-29 07:34:00,66.6,63.3,30.05,SSE,155,1.0,5.0,89,0.00,,,0.00,Wunderground v.1.15,2013-07-29 12:34:00,
2013-07-29 07:44:00,66.9,63.6,30.05,SSE,150,1.0,5.0,89,0.00,,,0.00,Wunderground v.1.15,2013-07-29 12:44:00,
2013-07-29 07:49:00,67.1,63.7,30.06,SSE,151,1.0,5.0,89,0.00,,,0.00,Wunderground v.1.15,2013-07-29 12:49:00,
2013-07-29 07:59:00,67.3,63.9,30.06,SSE,151,0.0,5.0,89,0.00,,,0.00,Wunderground v.1.15,2013-07-29 12:59:00,
2013-07-29 08:24:00,68.1,64.7,30.07,SSE,151,0.0,5.0,89,0.00,,,0.00,Wunderground v.1.15,2013-07-29 13:24:00,
2013-07-29 08:39:00,68.6,65.2,30.07,SSE,151,0.0,5.0,89,0.00,,,0.00,Wunderground v.1.15,2013-07-29 13:39:00,
2013-07-29 08:49:00,68.8,65.1,30.07,SSE,148,0.0,5.0,88,0.00,,,0.00,Wunderground v.1.15,2013-07-29 13:49:00,
2013-07-29 08:54:00,68.9,65.2,30.07,SSE,158,0.0,5.0,88,0.00,,,0.00,Wunderground v.1.15,2013-07-29 13:54:00,
2013-07-29 09:04:00,69.3,65.3,30.07,SSE,148,1.0,3.0,87,0.00,,,0.00,Wunderground v.1.15,2013-07-29 14:04:00,
2013-07-29 09:14:00,69.6,64.9,30.07,South,183,2.0,5.0,85,0.00,,,0.00,Wunderground v.1.15,2013-07-29 14:14:00,
2013-07-29 09:29:00,70.4,65.3,30.07,SSE,151,1.0,1.0,84,0.00,,,0.00,Wunderground v.1.15,2013-07-29 14:29:00,
2013-07-29 09:34:00,70.6,65.2,30.06,ESE,117,2.0,2.0,83,0.00,,,0.00,Wunderground v.1.15,2013-07-29 14:34:00,
2013-07-29 09:39:00,70.8,65.4,30.06,SSE,148,2.0,5.0,83,0.00,,,0.00,Wunderground v.1.15,2013-07-29 14:39:00,
2013-07-29 09:49:00,71.6,65.5,30.06,SSE,160,3.0,3.0,81,0.00,,,0.00,Wunderground v.1.15,2013-07-29 14:49:00,
2013-07-29 09:59:00,71.6,65.5,30.06,SSW,192,4.0,4.0,81,0.00,,,0.00,Wunderground v.1.15,2013-07-29 14:59:00,
2013-07-29 10:04:00,71.6,65.5,30.05,ESE,117,4.0,5.0,81,0.00,,,0.00,Wunderground v.1.15,2013-07-29 15:04:00,
2013-07-29 10:14:00,72.0,65.8,30.05,ENE,68,3.0,5.0,81,0.00,,,0.00,Wunderground v.1.15,2013-07-29 15:14:00,
2013-07-29 10:24:00,72.7,66.5,30.06,SSE,163,2.0,3.0,81,0.00,,,0.00,Wunderground v.1.15,2013-07-29 15:24:00,
2013-07-29 10:29:00,72.8,66.3,30.06,SSE,153,2.0,2.0,80,0.00,,,0.00,Wunderground v.1.15,2013-07-29 15:29:00,
2013-07-29 10:34:00,73.2,66.3,30.05,SSE,147,2.0,5.0,79,0.00,,,0.00,Wunderground v.1.15,2013-07-29 15:34:00,
2013-07-29 10:44:00,73.5,66.2,30.05,South,190,3.0,5.0,78,0.00,,,0.00,Wunderground v.1.15,2013-07-29 15:44:00,
2013-07-29 10:54:00,74.0,66.7,30.04,SSE,153,3.0,5.0,78,0.00,,,0.00,Wunderground v.1.15,2013-07-29 15:54:00,
2013-07-29 10:59:00,74.0,66.7,30.04,SSE,147,4.0,4.0,78,0.00,,,0.00,Wunderground v.1.15,2013-07-29 15:59:00,
2013-07-29 11:14:00,74.7,67.4,30.05,SSE,151,4.0,5.0,78,0.00,,,0.00,Wunderground v.1.15,2013-07-29 16:14:00,
2013-07-29 11:24:00,75.8,68.1,30.04,South,171,2.0,6.0,77,0.00,,,0.00,Wunderground v.1.15,2013-07-29 16:24:00,
2013-07-29 11:29:00,76.1,68.0,30.04,South,175,2.0,5.0,76,0.00,,,0.00,Wunderground v.1.15,2013-07-29 16:29:00,
2013-07-29 11:39:00,75.6,67.1,30.04,South,170,4.0,4.0,75,0.00,,,0.00,Wunderground v.1.15,2013-07-29 16:39:00,
2013-07-29 11:44:00,75.4,66.9,30.04,South,179,3.0,5.0,75,0.00,,,0.00,Wunderground v.1.15,2013-07-29 16:44:00,
2013-07-29 11:54:00,75.6,67.1,30.04,South,170,3.0,5.0,75,0.00,,,0.00,Wunderground v.1.15,2013-07-29 16:54:00,
2013-07-29 12:05:00,76.1,67.6,30.04,South,187,4.0,5.0,75,0.00,,,0.00,Wunderground v.1.15,2013-07-29 17:05:00,
2013-07-29 12:14:00,76.3,67.8,30.04,SSW,203,3.0,4.0,75,0.00,,,0.00,Wunderground v.1.15,2013-07-29 17:14:00,
2013-07-29 12:24:00,76.8,67.9,30.03,SSE,161,4.0,9.0,74,0.00,,,0.00,Wunderground v.1.15,2013-07-29 17:24:00,
2013-07-29 12:34:00,77.2,66.7,30.03,SSE,149,4.0,6.0,70,0.00,,,0.00,Wunderground v.1.15,2013-07-29 17:34:00,
2013-07-29 12:39:00,77.0,67.7,30.03,South,185,4.0,4.0,73,0.00,,,0.00,Wunderground v.1.15,2013-07-29 17:39:00,
2013-07-29 12:54:00,76.7,67.8,30.02,South,169,3.0,4.0,74,0.00,,,0.00,Wunderground v.1.15,2013-07-29 17:54:00,
2013-07-29 13:04:00,76.5,68.7,30.02,SSW,192,2.0,11.0,77,0.00,,,0.00,Wunderground v.1.15,2013-07-29 18:04:00,
2013-07-29 13:09:00,76.3,68.6,30.02,SSW,192,2.0,2.0,77,0.00,,,0.00,Wunderground v.1.15,2013-07-29 18:09:00,
2013-07-29 13:19:00,76.1,68.7,30.01,South,178,2.0,2.0,78,0.00,,,0.00,Wunderground v.1.15,2013-07-29 18:19:00,
2013-07-29 13:29:00,76.5,68.7,30.01,SSE,168,3.0,11.0,77,0.00,,,0.00,Wunderground v.1.15,2013-07-29 18:29:00,
2013-07-29 13:34:00,76.7,68.9,30.01,SSE,156,2.0,11.0,77,0.00,,,0.00,Wunderground v.1.15,2013-07-29 18:34:00,
2013-07-29 13:39:00,76.8,69.0,30.01,SE,134,2.0,11.0,77,0.00,,,0.00,Wunderground v.1.15,2013-07-29 18:39:00,
2013-07-29 13:49:00,77.4,68.9,30.01,SE,144,2.0,11.0,75,0.00,,,0.00,Wunderground v.1.15,2013-07-29 18:49:00,
2013-07-29 13:59:00,77.6,69.0,30.01,South,169,3.0,11.0,75,0.00,,,0.00,Wunderground v.1.15,2013-07-29 18:59:00,
2013-07-29 14:09:00,77.9,68.9,30.01,SE,145,2.0,11.0,74,0.00,,,0.00,Wunderground v.1.15,2013-07-29 19:09:00,
2013-07-29 14:19:00,78.5,69.5,30.00,South,191,2.0,11.0,74,0.00,,,0.00,Wunderground v.1.15,2013-07-29 19:19:00,
2013-07-29 14:24:00,78.8,69.0,30.00,SE,126,2.0,11.0,72,0.00,,,0.00,Wunderground v.1.15,2013-07-29 19:24:00,
2013-07-29 14:34:00,79.9,69.7,30.00,SE,136,2.0,11.0,71,0.00,,,0.00,Wunderground v.1.15,2013-07-29 19:34:00,
2013-07-29 14:44:00,81.1,70.0,30.00,SE,143,3.0,11.0,69,0.00,,,0.00,Wunderground v.1.15,2013-07-29 19:44:00,
2013-07-29 14:49:00,81.4,70.2,29.99,ESE,121,3.0,11.0,69,0.00,,,0.00,Wunderground v.1.15,2013-07-29 19:49:00,
2013-07-29 14:59:00,81.6,69.6,29.99,SE,135,3.0,3.0,67,0.00,,,0.00,Wunderground v.1.15,2013-07-29 19:59:00,
2013-07-29 15:19:00,81.6,70.4,29.98,SSW,211,2.0,11.0,69,0.00,,,0.00,Wunderground v.1.15,2013-07-29 20:19:00,
2013-07-29 15:24:00,81.8,69.8,29.98,SE,135,3.0,11.0,67,0.00,,,0.00,Wunderground v.1.15,2013-07-29 20:24:00,
2013-07-29 15:34:00,81.8,70.2,29.98,SSE,155,4.0,11.0,68,0.00,,,0.00,Wunderground v.1.15,2013-07-29 20:34:00,
2013-07-29 15:39:00,81.8,69.8,29.98,South,188,3.0,11.0,67,0.00,,,0.00,Wunderground v.1.15,2013-07-29 20:39:00,
2013-07-29 15:44:00,81.8,70.2,29.98,SE,128,3.0,12.0,68,0.00,,,0.00,Wunderground v.1.15,2013-07-29 20:44:00,
2013-07-29 15:59:00,82.2,69.3,29.98,South,189,5.0,5.0,65,0.00,,,0.00,Wunderground v.1.15,2013-07-29 20:59:00,
2013-07-29 16:09:00,82.2,69.7,29.98,SE,133,2.0,11.0,66,0.00,,,0.00,Wunderground v.1.15,2013-07-29 21:09:00,
2013-07-29 16:19:00,82.0,69.1,29.98,SSW,197,4.0,4.0,65,0.00,,,0.00,Wunderground v.1.15,2013-07-29 21:19:00,
2013-07-29 16:24:00,82.0,69.5,29.98,SSE,164,4.0,5.0,66,0.00,,,0.00,Wunderground v.1.15,2013-07-29 21:24:00,
2013-07-29 16:34:00,82.0,69.1,29.97,SE,139,3.0,4.0,65,0.00,,,0.00,Wunderground v.1.15,2013-07-29 21:34:00,
2013-07-29 16:49:00,82.2,69.3,29.97,South,188,2.0,11.0,65,0.00,,,0.00,Wunderground v.1.15,2013-07-29 21:49:00,
2013-07-29 16:59:00,82.4,69.4,29.97,South,174,3.0,3.0,65,0.00,,,0.00,Wunderground v.1.15,2013-07-29 21:59:00,
2013-07-29 17:04:00,82.2,69.7,29.97,South,169,2.0,11.0,66,0.00,,,0.00,Wunderground v.1.15,2013-07-29 22:04:00,
2013-07-29 17:14:00,82.0,69.1,29.97,ESE,119,4.0,4.0,65,0.00,,,0.00,Wunderground v.1.15,2013-07-29 22:14:00,
2013-07-29 17:24:00,82.0,69.1,29.97,SSW,198,3.0,11.0,65,0.00,,,0.00,Wunderground v.1.15,2013-07-29 22:24:00,
2013-07-29 17:34:00,81.8,68.9,29.97,SSE,166,3.0,11.0,65,0.00,,,0.00,Wunderground v.1.15,2013-07-29 22:34:00,
2013-07-29 17:44:00,82.0,69.1,29.97,South,175,3.0,11.0,65,0.00,,,0.00,Wunderground v.1.15,2013-07-29 22:44:00,
2013-07-29 17:49:00,81.8,68.9,29.97,South,184,4.0,11.0,65,0.00,,,0.00,Wunderground v.1.15,2013-07-29 22:49:00,
2013-07-29 17:54:00,81.8,69.3,29.97,South,175,3.0,11.0,66,0.00,,,0.00,Wunderground v.1.15,2013-07-29 22:54:00,
2013-07-29 18:04:00,81.6,69.6,29.97,South,171,4.0,11.0,67,0.00,,,0.00,Wunderground v.1.15,2013-07-29 23:04:00,
2013-07-29 18:09:00,81.4,69.4,29.97,SE,140,4.0,4.0,67,0.00,,,0.00,Wunderground v.1.15,2013-07-29 23:09:00,
2013-07-29 18:19:00,81.2,69.6,29.97,South,174,2.0,11.0,68,0.00,,,0.00,Wunderground v.1.15,2013-07-29 23:19:00,
2013-07-29 18:29:00,81.1,69.1,29.97,South,185,3.0,11.0,67,0.00,,,0.00,Wunderground v.1.15,2013-07-29 23:29:00,
2013-07-29 18:39:00,81.1,69.5,29.96,South,184,2.0,2.0,68,0.00,,,0.00,Wunderground v.1.15,2013-07-29 23:39:00,
2013-07-29 18:49:00,80.9,69.3,29.97,SE,146,2.0,11.0,68,0.00,,,0.00,Wunderground v.1.15,2013-07-29 23:49:00,
2013-07-29 18:59:00,80.5,69.4,29.97,SE,140,1.0,11.0,69,0.00,,,0.00,Wunderground v.1.15,2013-07-29 23:59:00,
2013-07-29 19:04:00,80.5,69.4,29.97,SSE,150,2.0,11.0,69,0.00,,,0.00,Wunderground v.1.15,2013-07-30 00:04:00,
2013-07-29 19:09:00,80.5,69.4,29.97,SSE,167,2.0,11.0,69,0.00,,,0.00,Wunderground v.1.15,2013-07-30 00:09:00,
2013-07-29 19:14:00,80.5,69.8,29.97,South,183,2.0,11.0,70,0.00,,,0.00,Wunderground v.1.15,2013-07-30 00:14:00,
2013-07-29 19:24:00,80.3,69.6,29.97,SE,143,2.0,11.0,70,0.00,,,0.00,Wunderground v.1.15,2013-07-30 00:24:00,
2013-07-29 19:34:00,80.1,69.4,29.97,South,181,2.0,11.0,70,0.00,,,0.00,Wunderground v.1.15,2013-07-30 00:34:00,
2013-07-29 19:44:00,79.8,69.6,29.97,SSE,167,2.0,11.0,71,0.00,,,0.00,Wunderground v.1.15,2013-07-30 00:44:00,
2013-07-29 19:54:00,79.4,69.6,29.97,South,169,2.0,11.0,72,0.00,,,0.00,Wunderground v.1.15,2013-07-30 00:54:00,
2013-07-29 19:59:00,79.2,69.4,29.97,SSE,155,2.0,11.0,72,0.00,,,0.00,Wunderground v.1.15,2013-07-30 00:59:00,
2013-07-29 20:09:00,79.0,69.2,29.97,SSW,210,3.0,11.0,72,0.00,,,0.00,Wunderground v.1.15,2013-07-30 01:09:00,
2013-07-29 20:24:00,78.8,69.4,29.97,SSW,193,3.0,11.0,73,0.00,,,0.00,Wunderground v.1.15,2013-07-30 01:24:00,
2013-07-29 20:29:00,78.6,69.2,29.97,SE,133,3.0,3.0,73,0.00,,,0.00,Wunderground v.1.15,2013-07-30 01:29:00,
2013-07-29 20:39:00,78.5,69.5,29.97,South,186,3.0,11.0,74,0.00,,,0.00,Wunderground v.1.15,2013-07-30 01:39:00,
2013-07-29 20:49:00,78.3,69.3,29.97,South,184,3.0,11.0,74,0.00,,,0.00,Wunderground v.1.15,2013-07-30 01:49:00,
2013-07-29 20:59:00,78.1,69.5,29.97,SE,137,2.0,11.0,75,0.00,,,0.00,Wunderground v.1.15,2013-07-30 01:59:00,
2013-07-29 21:09:00,78.1,69.5,29.98,SE,136,2.0,11.0,75,0.00,,,0.00,Wunderground v.1.15,2013-07-30 02:09:00,
2013-07-29 21:19:00,78.1,69.5,29.98,South,185,3.0,11.0,75,0.00,,,0.00,Wunderground v.1.15,2013-07-30 02:19:00,
2013-07-29 21:29:00,77.9,69.3,29.98,SSW,205,3.0,3.0,75,0.00,,,0.00,Wunderground v.1.15,2013-07-30 02:29:00,
2013-07-29 21:34:00,77.9,69.3,29.98,South,174,3.0,11.0,75,0.00,,,0.00,Wunderground v.1.15,2013-07-30 02:34:00,
2013-07-29 21:39:00,77.9,69.3,29.98,SSE,167,4.0,4.0,75,0.00,,,0.00,Wunderground v.1.15,2013-07-30 02:39:00,
2013-07-29 21:44:00,77.9,69.7,29.98,South,172,4.0,11.0,76,0.00,,,0.00,Wunderground v.1.15,2013-07-30 02:44:00,
2013-07-29 21:54:00,77.7,69.5,29.98,SSE,159,2.0,3.0,76,0.00,,,0.00,Wunderground v.1.15,2013-07-30 02:54:00,
2013-07-29 21:59:00,77.7,69.9,29.98,SE,142,2.0,2.0,77,0.00,,,0.00,Wunderground v.1.15,2013-07-30 02:59:00,
2013-07-29 22:05:00,74.2,70.4,29.99,South,179,2.0,11.0,88,0.15,,,0.08,Wunderground v.1.15,2013-07-30 03:05:00,
2013-07-29 22:09:00,77.4,70.4,29.98,SSE,155,4.0,11.0,79,0.00,,,0.01,Wunderground v.1.15,2013-07-30 03:09:00,
2013-07-29 22:10:00,74.0,70.6,29.99,SSE,164,3.0,11.0,89,0.07,,,0.09,Wunderground v.1.15,2013-07-30 03:10:00,
2013-07-29 22:15:00,73.9,70.5,29.99,SSE,156,2.0,11.0,89,0.07,,,0.09,Wunderground v.1.15,2013-07-30 03:15:00,
2013-07-29 22:19:00,76.7,70.4,29.99,South,174,2.0,11.0,81,0.00,,,0.01,Wunderground v.1.15,2013-07-30 03:19:00,
2013-07-29 22:20:00,73.7,70.3,29.98,SSE,152,1.0,11.0,89,0.11,,,0.10,Wunderground v.1.15,2013-07-30 03:20:00,
2013-07-29 22:25:00,73.5,70.4,29.98,SW,214,1.0,11.0,90,0.10,,,0.11,Wunderground v.1.15,2013-07-30 03:25:00,
2013-07-29 22:29:00,76.1,70.6,29.99,South,177,1.0,11.0,83,0.00,,,0.02,Wunderground v.1.15,2013-07-30 03:29:00,
2013-07-29 22:30:00,73.3,70.2,29.98,SSE,158,2.0,11.0,90,0.07,,,0.12,Wunderground v.1.15,2013-07-30 03:30:00,
2013-07-29 22:34:00,75.8,70.6,29.98,South,173,2.0,11.0,84,0.00,,,0.02,Wunderground v.1.15,2013-07-30 03:34:00,
2013-07-29 22:35:00,73.2,70.1,29.99,SSE,163,2.0,11.0,90,0.07,,,0.12,Wunderground v.1.15,2013-07-30 03:35:00,
2013-07-29 22:40:00,73.2,70.1,29.99,SE,126,2.0,11.0,90,0.06,,,0.12,Wunderground v.1.15,2013-07-30 03:40:00,
2013-07-29 22:45:00,73.2,70.1,29.99,SSE,168,2.0,11.0,90,0.05,,,0.13,Wunderground v.1.15,2013-07-30 03:45:00,
2013-07-29 22:49:00,74.9,70.4,29.98,South,169,2.0,11.0,86,0.11,,,0.05,Wunderground v.1.15,2013-07-30 03:49:00,
2013-07-29 22:50:00,73.0,69.9,30.00,South,173,3.0,3.0,90,0.09,,,0.14,Wunderground v.1.15,2013-07-30 03:50:00,
2013-07-29 22:55:00,73.0,70.2,30.00,SE,146,2.0,4.0,91,0.09,,,0.14,Wunderground v.1.15,2013-07-30 03:55:00,
2013-07-29 22:59:00,74.6,70.8,29.98,South,172,2.0,2.0,88,0.13,,,0.07,Wunderground v.1.15,2013-07-30 03:59:00,
2013-07-29 23:00:00,73.0,70.2,30.00,SSW,203,1.0,11.0,91,0.19,,,0.16,Wunderground v.1.15,2013-07-30 04:00:00,
2013-07-29 23:05:00,72.8,70.0,30.00,SSW,198,1.0,11.0,91,0.13,,,0.00,Wunderground v.1.15,2013-07-30 04:05:00,
2013-07-29 23:10:00,72.8,70.3,30.00,South,179,1.0,1.0,92,0.15,,,0.01,Wunderground v.1.15,2013-07-30 04:10:00,
2013-07-29 23:15:00,72.7,70.2,30.00,SSE,162,1.0,11.0,92,0.23,,,0.03,Wunderground v.1.15,2013-07-30 04:15:00,
2013-07-29 23:20:00,72.7,70.2,30.00,SSE,159,1.0,11.0,92,0.24,,,0.05,Wunderground v.1.15,2013-07-30 04:20:00,
2013-07-29 23:25:00,72.5,70.0,30.00,South,174,0.0,11.0,92,0.37,,,0.07,Wunderground v.1.15,2013-07-30 04:25:00,
2013-07-29 23:30:00,72.5,70.0,30.00,SSE,168,1.0,11.0,92,0.23,,,0.09,Wunderground v.1.15,2013-07-30 04:30:00,
2013-07-29 23:35:00,72.5,70.4,30.01,South,171,1.0,11.0,93,0.26,,,0.10,Wunderground v.1.15,2013-07-30 04:35:00,
2013-07-29 23:40:00,72.3,70.2,30.01,SSE,151,2.0,11.0,93,0.42,,,0.14,Wunderground v.1.15,2013-07-30 04:40:00,
2013-07-29 23:45:00,72.3,70.2,30.01,SE,130,2.0,11.0,93,0.35,,,0.18,Wunderground v.1.15,2013-07-30 04:45:00,
2013-07-29 23:50:00,72.3,70.2,30.00,SSE,166,2.0,2.0,93,0.35,,,0.21,Wunderground v.1.15,2013-07-30 04:50:00,
2013-07-29 23:55:00,72.1,70.0,30.00,SSE,157,2.0,6.0,93,0.35,,,0.24,Wunderground v.1.15,2013-07-30 04:55:00,